CAPE
0 0 0 0 0 0 0 0 0 0 0 0 0 0 0 0 0 0 0 0 0 0 0 0 0 0 10 39 58 36 8 0 0 0 12 11 16 38 71 142 170 142 91
0 0 0 0 0 0 0 0 0 0 0 0 0 0 0 0 0 0 0 0 0 0 0 0 0 0 0 0 0 0 2 5 3 4 60 31 60 121 181 244 249 196 113
0 0 0 0 0 0 0 0 0 0 0 0 0 0 0 0 0 0 0 0 0 0 0 0 0 0 0 0 0 0 0 0 0 0 0 0 1 4 25 51 119 224 231
0 0 0 0 0 0 0 0 0 0 0 0 0 0 0 0 0 0 0 0 0 0 0 0 0 0 0 0 0 0 0 0 0 0 0 0 0 0 4 0 0 0 2
0 0 0 0 0 0 0 0 0 0 0 0 0 0 0 0 0 0 0 0 0 0 0 0 0 0 0 0 0 0 1 2 0 0 0 0 0 0 0 0 0 0 0
0 0 0 0 0 0 0 0 0 0 0 0 0 0 0 0 0 0 0 0 0 0 0 0 0 0 0 0 0 0 0 0 0 0 0 0 0 0 0 0 0 0 0
0 0 0 0 0 0 0 0 0 0 0 0 0 0 0 0 0 0 0 0 2 2 2 3 3 2 2 5 3 1 1 0 0 0 0 2 5 5 5 11 14 10 10
0 0 0 0 0 0 0 0 0 0 0 0 0 0 0 0 0 0 0 1 1 1 2 2 1 0 0 2 6 4 3 5 4 6 5 3 3 9 10 8 5 11 8
0 0 0 0 0 0 0 0 0 0 0 0 1 2 0 0 0 0 0 1 2 4 5 6 2 1 0 1 3 4 2 2 1 0 0 0 0 0 0 0 1 5 4
0 0 0 0 0 0 0 0 0 0 0 0 0 0 0 2 0 0 0 4 4 3 2 2 0 0 0 0 0 4 5 1 4 3 5 2 0 1 0 0 4 4 6
0 0 0 0 0 0 0 0 0 0 0 0 0 2 3 3 1 0 0 1 2 4 4 0 0 0 0 0 0 1 0 1 5 6 3 2 4 4 6 7 11 7 2
0 0 0 1 1 0 1 3 0 0 1 2 2 1 2 2 0 0 0 1 3 5 4 1 0 0 0 0 0 1 0 0 1 0 1 1 3 2 0 1 9 14 17
0 0 0 1 1 1 2 0 0 1 3 3 3 3 3 0 1 0 0 0 0 0 2 1 0 0 0 2 0 1 0 2 3 3 0 0 0 0 0 0 0 11 6
0 1 0 0 2 1 0 2 1 3 3 3 3 4 3 2 0 0 0 0 0 0 0 1 0 1 2 1 1 2 3 3 4 4 3 0 0 0 0 0 3 7 16
1 0 2 2 4 1 2 2 2 4 1 3 3 4 4 6 3 0 0 1 1 1 0 2 3 2 2 2 2 2 3 2 4 5 4 3 1 0 0 0 3 1 9
1 3 4 1 2 3 0 0 0 0 0 0 0 1 2 1 0 0 2 0 0 0 0 3 3 4 5 5 5 4 2 1 1 4 4 3 3 2 3 2 1 2 5
4 3 3 2 5 3 1 0 1 0 0 0 0 0 1 1 0 0 1 0 0 0 4 5 6 8 7 8 6 5 3 6 2 1 3 2 2 2 2 2 2 3 4
2 2 4 2 5 1 0 1 2 3 3 1 0 0 1 0 0 1 1 0 0 3 3 4 5 6 7 9 8 7 5 2 2 1 1 1 2 2 4 3 2 4 8
3 4 3 1 0 1 1 0 1 4 5 6 5 1 1 0 0 2 2 6 6 5 5 5 4 5 6 8 9 8 6 3 9 1 3 2 4 5 2 7 23 11 16
3 0 0 0 0 2 1 0 2 5 6 7 8 7 4 4 4 4 5 6 6 5 4 4 4 4 5 7 10 12 9 4 3 2 1 3 3 5 1 0 0 2 3
2 1 0 0 0 1 1 3 2 5 6 6 6 2 1 6 7 7 7 6 5 4 5 5 3 3 3 5 6 11 13 15 8 2 0 0 0 1 0 1 1 3 2
2 1 0 2 1 2 3 2 3 4 5 6 5 4 2 4 6 6 6 5 3 3 3 3 2 3 3 4 7 9 8 17 13 6 2 21 1 0 0 0 3 2 2
1 1 2 2 2 1 3 2 3 5 5 5 6 6 6 6 6 6 4 4 3 3 2 3 2 2 2 1 2 4 7 5 7 7 4 7 92 77 63 13 3 2 1
1 3 2 3 2 2 3 3 3 3 3 3 3 4 4 3 3 3 3 3 2 1 2 2 2 1 2 0 1 1 4 5 1 1 0 1 3 8 2 1 0 0 2
2 2 3 3 3 3 2 2 1 3 2 2 3 2 1 2 2 1 1 1 0 0 1 1 1 0 0 0 1 2 2 2 1 0 0 0 0 0 0 0 2 0 0
2 2 2 1 3 3 2 1 1 0 0 0 0 0 0 0 0 0 0 0 0 0 0 0 1 0 0 0 2 2 3 2 0 0 0 0 0 0 0 0 1 7 1
CIN
0 0 0 0 0 0 0 0 0 0 0 0 0 0 0 0 0 0 0 0 0 0 0 0 0 0 -19 -34 -23 -35 -54 -20 -18 0 -3 -37 -124 -112 -89 -75 -62 -70 -57
0 0 0 0 0 0 0 0 0 0 0 0 0 0 0 0 0 0 0 0 0 0 0 0 0 0 0 0 0 0 0 -2 -21 -43 -4 -21 -9 -25 -31 -42 -70 -56 -63
0 0 0 0 0 0 0 0 0 0 0 0 0 0 0 0 0 0 0 0 0 0 0 0 0 0 0 0 0 0 0 0 0 0 0 -1 -1 -1 -60 -93 -71 -41 -50
0 0 0 0 0 0 0 0 0 0 0 0 0 0 0 0 0 0 0 0 0 0 0 0 0 0 0 0 0 0 0 0 0 0 0 0 0 0 -3 0 0 0 -48
0 0 0 0 0 0 0 0 0 0 0 0 0 0 0 0 0 0 0 0 0 0 0 0 0 0 0 0 0 0 -1 -2 0 0 0 0 0 0 0 0 0 0 0
0 0 0 0 0 0 0 0 0 0 0 0 0 0 0 0 0 0 0 0 0 -1 -1 -1 -1 0 0 0 0 0 0 0 -1 0 0 0 0 0 0 0 0 0 0
0 0 0 0 0 0 0 0 0 0 0 0 0 0 0 0 0 0 0 0 0 0 -1 -1 -1 0 0 0 0 -1 0 0 0 0 -1 -1 -1 -1 -2 -1 -1 -2 -1
0 0 0 0 0 0 0 0 0 0 0 0 0 0 0 0 0 0 0 -1 0 0 0 0 0 0 -1 0 0 0 0 0 0 -1 -1 0 -1 -1 -1 -1 -1 0 -1
0 0 0 0 0 0 0 0 0 0 -1 0 -1 0 0 0 0 0 0 0 -1 -1 0 0 -1 0 -1 -2 -1 0 0 0 0 0 0 0 0 0 0 0 0 0 0
0 0 0 0 0 0 0 0 0 -1 0 0 0 0 0 0 0 0 0 0 0 0 0 -1 -1 0 0 0 0 0 0 0 -1 -1 0 -2 -4 0 0 0 -1 0 0
0 0 0 0 0 0 0 0 0 0 0 0 0 0 0 0 0 0 0 0 0 0 0 0 0 0 0 0 0 -1 0 -1 -1 0 -1 -1 0 0 -2 -4 0 0 -1
0 0 0 0 0 0 0 0 0 0 0 0 0 0 0 0 0 0 0 0 0 0 0 0 0 0 0 0 0 0 0 0 0 -1 -1 0 0 0 -1 -3 -1 0 0
0 0 0 0 0 0 0 0 0 0 0 0 0 0 0 0 0 0 0 0 0 0 0 0 0 0 0 0 0 0 0 0 0 0 0 0 0 0 0 0 0 0 0
0 0 0 0 0 0 0 0 0 0 0 0 0 0 0 0 0 0 0 0 0 0 0 0 0 0 0 0 0 0 0 0 0 0 0 0 0 0 0 -1 0 0 0
0 0 0 0 0 0 0 0 0 0 0 0 0 0 0 0 0 0 0 0 0 0 0 0 0 0 0 0 0 0 0 0 0 0 0 0 0 0 0 0 0 0 0
0 0 0 0 0 0 0 0 0 0 0 0 0 0 0 0 0 0 0 0 0 0 0 0 0 0 0 0 0 0 0 -1 0 0 0 0 0 0 0 0 0 0 0
0 0 0 0 0 0 0 0 0 0 0 0 0 0 0 0 0 0 0 0 0 0 0 0 0 0 0 0 0 0 0 0 0 0 0 0 0 0 0 0 0 0 0
0 0 0 0 0 0 0 0 0 0 0 0 0 0 0 0 0 0 0 0 0 0 0 0 0 0 0 0 0 0 0 0 0 0 0 0 0 0 0 0 0 0 0
0 0 0 0 0 0 -1 -1 0 0 0 0 0 0 0 0 0 0 0 0 0 0 0 0 0 0 0 0 0 0 0 0 0 0 0 0 0 0 0 0 0 -2 -2
0 0 0 0 0 0 0 0 0 0 0 0 0 0 0 0 0 0 0 0 0 0 0 0 0 0 0 0 0 0 0 0 0 0 -2 0 -11 -4 0 0 0 0 -1
0 0 0 0 0 0 0 0 0 0 0 0 0 0 0 0 0 0 0 0 0 0 0 0 0 0 0 0 0 0 0 0 0 0 0 0 0 0 0 0 0 0 0
0 0 0 0 0 0 0 0 0 0 0 0 0 0 0 0 0 0 0 0 0 0 0 0 0 0 0 0 0 0 0 0 0 0 0 -5 -16 0 0 0 0 0 0
0 0 0 0 0 0 0 0 0 0 0 0 0 0 0 0 0 0 0 0 0 0 0 0 0 0 0 0 0 0 0 0 0 0 0 -2 0 -1 0 -3 -1 0 0
0 0 0 0 0 0 0 0 0 0 0 0 0 0 0 0 0 0 0 0 0 0 0 0 0 0 0 0 0 0 0 0 0 0 0 0 -11 -9 0 0 0 0 0
0 0 0 0 0 0 0 0 0 0 0 0 0 0 0 0 0 0 0 0 0 0 0 0 0 0 0 0 0 0 0 0 0 0 0 0 0 0 0 -1 0 -1 0
0 0 0 0 0 0 0 0 0 0 0 0 0 0 0 0 0 0 0 0 0 0 0 0 0 0 0 0 0 0 0 0 0 0 0 0 0 0 0 0 -1 0 0
Wind_Speed
7 7 9 12 15 18 20 23 24 25 27 29 30 30 31 32 33 33 34 34 35 35 34 34 33 31 32 31 30 31 31 31 34 33 31 31 34 36 36 33 34 34 32
9 9 12 15 17 20 25 26 27 28 28 31 32 33 34 35 35 35 36 35 36 36 35 35 35 32 33 33 33 33 33 34 36 40 37 40 40 37 39 40 37 35 36
11 14 17 22 23 24 26 26 28 30 31 34 35 35 35 36 37 36 36 37 37 37 36 36 36 35 35 34 33 35 35 35 36 40 44 42 40 43 40 39 40 39 39
18 19 21 22 23 25 27 28 30 33 34 35 36 37 37 38 38 38 38 40 40 39 38 38 38 38 39 39 38 38 38 38 38 40 42 43 42 41 40 41 43 40 41
17 20 22 24 26 28 30 31 33 34 35 35 36 35 36 36 34 39 39 39 40 40 40 40 40 39 40 39 39 39 38 39 40 41 43 43 42 40 40 40 41 39 36
21 23 26 28 29 31 31 32 32 34 34 34 34 33 34 33 34 36 37 38 38 39 39 38 38 38 38 38 38 38 39 40 41 42 44 45 45 45 44 43 41 38 40
24 27 29 31 31 31 32 32 32 32 32 32 33 33 34 33 35 36 37 37 38 39 39 39 39 37 37 37 37 36 35 35 36 41 46 46 48 46 46 46 44 43 42
28 30 31 32 32 32 32 31 32 32 32 32 32 32 33 32 34 37 38 36 37 37 37 37 37 37 36 36 37 37 36 35 34 34 35 38 39 40 40 41 41 41 39
31 32 32 32 31 30 31 31 31 31 30 31 31 32 32 33 35 36 36 35 35 36 35 34 34 36 36 37 38 38 36 35 32 32 34 35 37 38 38 38 37 36 38
30 31 30 30 28 29 30 30 29 29 30 31 32 31 30 32 34 36 36 34 35 35 33 32 30 30 31 32 32 33 36 34 32 33 31 32 30 30 28 27 31 34 35
30 28 27 27 26 27 28 27 27 29 30 29 29 30 30 32 32 33 35 34 30 28 25 15 7 7 5 6 14 28 28 28 27 26 28 26 24 26 29 29 29 28 33
24 24 24 24 25 26 26 27 27 27 28 29 30 30 30 29 28 27 28 18 13 13 10 8 6 5 7 10 9 10 11 9 9 9 8 10 12 16 19 25 28 29 29
23 24 24 24 24 25 26 26 26 27 25 22 23 22 17 17 16 8 9 10 8 8 5 5 8 10 12 12 10 10 10 11 11 8 8 6 5 7 15 24 31 32 30
22 22 23 24 27 26 23 23 24 27 28 27 25 18 12 8 5 9 8 9 10 8 7 7 9 9 8 8 10 11 10 7 6 8 6 5 2 4 1 11 25 25 25
20 22 24 24 25 24 23 23 21 23 17 11 10 5 5 6 4 7 8 9 8 8 7 12 13 11 13 14 16 16 16 11 5 2 4 4 8 5 8 8 22 23 23
19 22 23 23 23 23 24 24 21 7 7 9 8 5 6 4 6 8 7 11 12 13 23 20 17 14 17 17 19 20 18 14 4 5 8 11 11 11 12 15 20 23 25
20 22 23 23 23 23 25 19 12 12 5 18 26 9 5 6 5 5 7 13 16 20 19 22 21 23 17 19 21 22 23 24 15 25 20 19 17 15 14 16 19 22 24
19 22 23 23 23 23 22 22 16 19 16 10 6 13 3 12 18 13 8 25 21 13 16 19 22 22 23 24 24 25 23 24 33 32 29 25 21 19 17 16 17 20 21
19 22 23 23 23 22 21 22 23 24 24 18 15 26 16 3 9 4 19 33 19 11 15 20 23 23 24 25 24 24 25 22 26 30 28 26 24 22 20 17 15 16 18
18 22 22 22 22 21 20 21 22 23 23 24 26 28 16 9 23 10 4 7 9 11 16 16 21 24 24 23 23 22 26 23 21 24 27 24 25 18 20 20 19 15 16
17 20 21 21 21 21 20 20 21 22 23 25 25 27 24 28 24 8 2 6 15 9 10 15 19 21 22 23 23 19 18 21 20 16 19 22 23 23 22 18 15 14 14
17 19 20 19 19 20 20 20 20 20 22 24 25 27 23 24 26 27 29 28 5 10 34 21 18 20 17 17 18 18 17 15 15 14 13 18 20 24 21 18 15 17 21
17 18 18 17 17 19 20 21 20 20 20 22 23 24 27 26 26 27 28 28 28 32 28 21 36 27 22 12 13 13 11 10 10 9 9 9 15 14 18 18 15 19 20
16 17 17 16 16 17 19 20 20 21 20 21 22 23 24 25 26 27 26 21 27 30 32 34 36 37 34 36 30 22 12 9 6 5 5 7 9 12 18 19 18 19 22
15 16 15 16 15 16 18 19 20 21 22 22 22 23 24 24 26 28 27 27 26 27 29 33 35 34 33 32 31 31 28 23 18 11 1 1 6 3 10 14 16 18 20
14 14 13 14 15 16 18 18 18 19 21 22 23 24 26 26 26 27 28 29 29 30 31 32 34 35 37 36 33 30 30 30 28 24 22 21 18 9 2 5 7 12 14
Wind_Direction
331 332 334 333 334 335 328 325 326 326 326 322 322 322 321 318 319 317 316 316 313 312 310 308 306 307 304 303 301 298 295 294 289 290 293 296 292 292 293 294 296 298 299
358 350 337 329 337 332 327 321 325 329 327 322 322 320 320 318 319 318 316 316 314 313 312 311 308 307 304 302 300 298 297 296 292 290 291 291 290 294 293 291 294 296 296
3 0 346 335 330 324 328 334 331 326 325 320 319 320 320 319 317 317 316 314 313 311 310 308 306 306 304 303 301 298 297 295 292 292 289 293 289 291 294 293 293 293 294
352 340 335 330 328 331 331 332 330 324 322 321 319 318 319 318 317 316 315 313 311 309 308 306 304 302 301 299 298 296 295 294 292 291 290 290 291 292 292 292 292 292 292
346 341 344 342 334 332 329 326 325 324 324 326 324 325 324 323 323 320 317 315 313 311 309 306 304 302 301 299 298 296 295 294 292 291 290 291 290 290 290 293 293 295 294
355 341 336 334 330 331 333 334 334 331 330 330 330 331 331 330 329 327 325 321 319 316 314 312 310 308 305 301 298 294 292 291 290 290 290 289 289 289 290 290 291 293 293
340 341 339 337 337 338 338 338 338 340 339 338 337 336 335 334 333 331 329 326 323 320 317 315 313 311 309 306 305 302 299 296 292 291 289 289 289 288 288 287 287 288 291
343 341 339 338 339 339 341 343 344 344 343 342 342 342 341 341 339 336 334 333 329 327 323 319 316 314 312 310 307 305 304 303 301 298 296 295 293 292 290 289 288 288 290
340 339 339 342 343 346 345 347 350 350 352 350 348 346 345 344 343 343 342 341 338 335 332 329 324 318 314 311 307 306 306 304 304 301 298 297 295 292 290 289 287 287 286
348 345 347 351 353 353 353 355 356 357 355 352 350 352 354 352 351 349 349 349 347 347 346 342 337 331 325 321 318 314 309 309 310 308 306 304 300 294 291 288 286 283 284
350 357 0 1 1 360 359 1 3 360 360 1 1 359 357 356 358 359 357 358 1 2 4 6 0 355 329 329 338 321 320 322 320 317 314 312 308 300 293 288 283 282 279
7 11 10 9 8 6 6 5 8 11 12 13 10 8 8 13 13 16 15 21 17 18 7 2 345 326 291 274 275 273 272 284 308 296 300 311 310 309 302 292 286 282 278
16 14 14 14 13 11 9 15 19 20 28 36 35 36 39 39 41 36 324 325 337 343 351 327 308 306 299 294 295 293 291 320 315 289 292 306 321 329 315 296 282 274 273
22 23 17 18 10 12 26 27 28 28 27 29 34 46 50 50 17 319 340 336 329 352 359 2 1 348 331 328 345 3 358 343 318 317 288 264 310 16 13 319 283 275 271
30 24 16 19 18 24 27 29 46 45 59 68 71 55 48 41 16 344 348 359 2 10 4 44 37 27 32 30 25 21 12 4 351 217 193 162 171 127 143 120 260 262 259
33 20 19 20 23 29 19 24 44 103 97 92 87 75 74 71 326 332 346 42 50 49 63 57 54 43 43 36 37 31 29 26 51 113 112 131 117 119 143 161 203 237 234
29 19 20 21 23 23 3 311 278 286 126 71 48 320 321 323 344 39 3 65 60 63 64 57 58 51 47 46 44 42 40 47 59 85 101 104 103 123 141 161 182 190 206
33 19 18 21 21 14 337 328 301 318 310 303 107 79 22 324 332 334 347 68 64 43 59 57 55 54 54 51 49 48 51 59 67 75 88 100 107 115 136 157 167 174 199
31 13 11 16 19 12 348 351 350 356 356 324 332 35 62 48 98 22 350 52 76 39 53 58 54 58 57 54 57 53 56 63 73 79 89 95 103 108 117 132 151 171 191
34 9 7 12 18 21 353 355 0 4 360 358 7 3 326 330 17 348 27 74 66 63 62 57 58 58 56 55 54 55 58 67 74 82 86 93 94 111 108 115 126 147 171
31 9 1 5 15 24 3 358 4 9 8 8 9 6 350 26 4 323 58 80 76 64 51 58 58 57 57 57 56 51 53 63 76 78 85 90 93 99 99 111 125 131 157
31 12 1 357 7 20 26 15 10 8 8 11 17 18 353 8 10 6 8 360 65 29 23 42 60 58 54 53 53 53 51 57 65 69 73 90 93 91 98 105 113 112 108
32 17 3 356 1 12 21 23 19 9 6 4 1 5 8 9 1 1 2 359 353 4 346 334 21 40 5 44 50 52 37 27 47 59 63 77 89 93 94 96 105 104 114
30 22 7 3 358 6 14 16 19 16 6 2 359 357 355 355 356 354 345 330 344 352 355 1 20 3 350 356 344 334 335 344 18 46 46 73 90 96 94 96 99 104 101
24 27 8 4 358 4 13 12 14 15 14 5 356 356 354 347 352 352 345 338 335 337 341 353 355 347 342 340 337 338 332 326 321 316 25 37 97 106 110 108 104 102 103
24 17 6 4 2 6 12 8 5 6 5 4 3 2 360 357 352 347 350 347 344 345 345 347 346 350 349 346 338 333 332 333 330 323 323 324 317 293 199 142 137 119 117